[[{"header":{"parameterUnit":"m.s-1","parameterCategory":1,"la1":30.2991,"la2":30.254,"lo1":-89.0895,"lo2":-89.0444,"dy":0.0017,"dx":0.0017,"nx":28,"ny":28,"refTime":"2025-03-07T09:00:00:Z","depth":0,"parameterNumber":2,"parameterNumberName":"U-component_of_WINDS"},"data":[0,0,0,0,0,0,0,0,0,0,0,0,0,0,0,0,0,0,0,0,0,0,0,0,0,0,0,0,0,0,0,0,0,0,0,0,0,0,0,0,0,0,0,0,0,0,0,0,0,0,0,0,0,0,0,0,0,0,-2.6649,-2.6649,0,-2.6648,-2.6648,-2.6648,-2.6584,-2.6582,-2.6581,-2.6579,-2.6578,-2.6579,-2.6581,0,0,0,0,0,0,0,0,0,0,0,0,0,-2.6597,-2.6599,-2.6649,-2.6649,-2.6649,-2.6648,-2.6648,-2.6648,-2.6584,-2.6582,-2.658,-2.6578,-2.6577,-2.6579,-2.6581,0,0,0,0,0,0,0,0,0,0,0,0,0,-2.661,-2.6599,-2.6649,-2.6617,-2.6615,-2.6648,-2.6648,-2.6648,-2.6585,-2.6582,-2.658,-2.6577,-2.6577,-2.6579,-2.6581,-2.6645,0,0,-2.6588,-2.6589,0,0,0,0,0,0,0,0,-2.661,-2.6612,-2.6622,-2.662,-2.6617,-2.6614,-2.6629,-2.6647,-2.6585,-2.6596,-2.6579,-2.6576,-2.6592,-2.6593,-2.6598,-2.6645,-2.6645,-2.6588,-2.659,-2.6591,-2.6591,0,0,0,0,0,0,0,-2.6609,-2.6612,-2.6649,-2.6622,-2.6619,-2.6603,-2.6602,-2.6632,-2.6608,-2.6595,-2.659,-2.6591,-2.659,-2.6596,-2.6597,-2.6645,-2.6588,-2.659,-2.6592,-2.6593,-2.6744,-2.6746,0,0,0,0,0,0,-2.6612,-2.6612,-2.6649,-2.6649,-2.6607,-2.6606,-2.6605,-2.6617,-2.6607,-2.6604,-2.6593,-2.6588,-2.6593,-2.6595,-2.6597,-2.6671,-2.6591,-2.6593,-2.6594,-2.6741,-2.6745,-2.6747,0,0,0,0,0,0,-2.6611,-2.6616,-2.6649,-2.6629,-2.6632,-2.661,-2.6624,-2.6618,-2.6624,-2.6606,-2.6601,-2.6604,-2.6591,-2.6594,-2.6633,-2.667,-2.6594,-2.6596,-2.6738,-2.6742,-2.6746,-2.6819,0,0,0,0,0,0,-2.661,-2.6616,-2.664,-2.663,-2.6633,-2.6685,-2.6626,-2.662,-2.6628,-2.6622,-2.6615,-2.6611,-2.659,-2.663,-2.6636,-2.6671,-2.6598,-2.6735,-2.674,-2.6745,-2.6813,-2.6825,-2.6835,0,0,0,0,0,-2.6609,-2.6661,-2.6642,-2.6647,-2.6663,-2.6688,-2.6689,-2.6663,-2.6632,-2.6655,-2.6644,-2.6611,-2.6665,-2.6635,-2.664,-2.6677,-2.6732,-2.6739,-2.6744,-2.6808,-2.6822,-2.6834,0,0,0,0,0,0,-2.6676,-2.6659,-2.6637,-2.6688,-2.669,-2.6677,-2.6706,-2.6679,-2.669,-2.6683,-2.6651,-2.665,-2.6694,-2.669,-2.6657,-2.6739,-2.6693,-2.67,-2.674,-2.6753,-2.6764,-2.6764,-2.66,0,0,0,0,0,-2.6697,-2.6718,-2.6702,-2.6748,-2.675,-2.6728,-2.6738,-2.6718,-2.6718,-2.6719,-2.671,-2.6712,-2.6729,-2.6741,-2.6756,-2.6812,-2.681,-2.684,-2.6851,-2.686,-2.6867,-2.6896,-2.6909,-2.6767,-2.6767,-2.6767,0,0,-2.6739,-2.6733,-2.6748,-2.6762,-2.6761,-2.6784,-2.6729,-2.6756,-2.6773,-2.6723,-2.6759,-2.6753,-2.6753,-2.6802,-2.6822,-2.6799,-2.6906,-2.6868,-2.6875,-2.6877,-2.6904,-2.6917,-2.6929,-2.6771,-2.677,-2.677,0,0,-2.6829,-2.6827,-2.6865,-2.6865,-2.6864,-2.6849,-2.6858,-2.685,-2.6843,-2.688,-2.6843,-2.6863,-2.6893,-2.6894,-2.6899,-2.699,-2.6961,-2.6996,-2.7052,-2.7081,-2.7093,-2.7102,-2.7134,-2.7146,-2.7003,-2.7003,-2.7003,0,-2.6882,-2.6916,-2.6887,-2.6917,-2.6923,-2.688,-2.6918,-2.6919,-2.6924,-2.6929,-2.6903,-2.6941,-2.6937,-2.6985,-2.7008,-2.7013,-2.7022,-2.6996,-2.7093,-2.7103,-2.7112,-2.7142,-2.7154,-2.7007,-2.7007,-2.7006,-2.7006,0,-2.6981,-2.7005,-2.7036,-2.7041,-2.7051,-2.7085,-2.7062,-2.7076,-2.7055,-2.7043,-2.7081,-2.7075,-2.7088,-2.7098,-2.7078,-2.7144,-2.7129,-2.7099,-2.7052,-2.713,-2.7157,-2.7169,-2.7013,-2.7012,-2.701,-2.7009,0,0,-2.7112,-2.7102,-2.7113,-2.7115,-2.7111,-2.7129,-2.7161,-2.7174,-2.7186,-2.7191,-2.7216,-2.7244,-2.7215,-2.7221,-2.7201,-2.7227,-2.7298,-2.7193,-2.7192,-2.7212,-2.7369,-2.7391,-2.7405,-2.7279,-2.7282,-2.7283,-2.7369,0,-2.7199,-2.7252,-2.7228,-2.7284,-2.7305,-2.7264,-2.7292,-2.7293,-2.7282,-2.7299,-2.7288,-2.7307,-2.7269,-2.7272,-2.7296,-2.7285,-2.7329,-2.7278,-2.7302,-2.7304,-2.7303,-2.742,-2.7443,-2.7524,-2.738,-2.7382,-2.7383,0,-2.7306,-2.7315,-2.7373,-2.7366,-2.7374,-2.7399,-2.7409,-2.7425,-2.7426,-2.7416,-2.7423,-2.7397,-2.7428,-2.7383,-2.7424,-2.739,-2.7399,-2.7395,-2.7397,-2.7398,-2.7347,-2.7422,-2.755,-2.7561,-2.74,-2.7399,-2.7397,0,-2.7395,-2.7422,-2.746,-2.7463,-2.7455,-2.7474,-2.7472,-2.7469,-2.7478,-2.7487,-2.7493,-2.7505,-2.7512,-2.7522,-2.75,-2.7469,-2.7545,-2.7498,-2.7538,-2.7538,-2.7554,-2.7553,-2.7684,-2.7562,-2.7562,-2.7562,-2.7561,0,-2.7493,-2.753,-2.75,-2.7523,-2.7564,-2.7536,-2.7576,-2.7569,-2.7568,-2.7589,-2.7555,-2.7576,-2.7546,-2.7564,-2.7548,-2.7585,-2.7588,-2.7581,-2.7576,-2.7584,-2.7585,-2.7588,-2.7581,-2.7565,-2.7564,-2.7563,-2.7563,0,-2.7599,-2.758,-2.7619,-2.7609,-2.7607,-2.7637,-2.7628,-2.7649,-2.7637,-2.7664,-2.7669,-2.765,-2.767,-2.7649,-2.7667,-2.7656,-2.7705,-2.7693,-2.7705,-2.7701,-2.7742,-2.7738,-2.7878,-2.7895,-2.7763,-2.7765,-2.7766,0,-2.7662,-2.769,-2.7683,-2.7694,-2.7694,-2.7714,-2.7723,-2.7697,-2.7708,-2.771,-2.7731,-2.7748,-2.7759,-2.7792,-2.778,-2.7794,-2.778,-2.7829,-2.7782,-2.7789,-2.778,-2.7778,-2.778,-2.7838,-2.7839,-2.7841,-2.7842,0,-2.7777,-2.7766,-2.7781,-2.7792,-2.7804,-2.7812,-2.7817,-2.7829,-2.7802,-2.7816,-2.7835,-2.7845,-2.7863,-2.788,-2.789,-2.7887,-2.786,-2.7857,-2.7866,-2.7874,-2.7879,-2.7876,-2.773,-2.7853,-2.7852,-2.7851,-2.7851,-2.785,-2.7863,-2.7885,-2.7883,-2.79,-2.7902,-2.7907,-2.7927,-2.7917,-2.7933,-2.7945,-2.7929,-2.7953,-2.7953,-2.7964,-2.7964,-2.7983,-2.7962,-2.7977,-2.798,-2.7984,-2.7989,-2.7878,-2.7985,-2.7984,-2.7984,-2.7984,-2.7983,0,-2.7974,-2.7971,-2.7988,-2.7996,-2.801,-2.7983,-2.7988,-2.8001,-2.8022,-2.8024,-2.8036,-2.8059,-2.8075,-2.8064,-2.8078,-2.8095,-2.8082,-2.8099,-2.8097,-2.8096,-2.8007,-2.7997,-2.8108,-2.8108,-2.8108,-2.8108,-2.8108,-2.8108,-2.8034,-2.807,-2.8059,-2.8096,-2.8093,-2.8116,-2.812,-2.8125,-2.8127,-2.8153,-2.8166,-2.8159,-2.8156,-2.8169,-2.8183,-2.818,-2.8186,-2.8207,-2.8199,-2.8115,-2.8103,-2.8091,-2.8081,-2.8209,-2.8209,-2.8286,-2.8287,-2.8287]},{"header":{"parameterUnit":"m.s-1","parameterCategory":1,"la1":30.2991,"la2":30.254,"lo1":-89.0895,"lo2":-89.0444,"dy":0.0017,"dx":0.0017,"nx":28,"ny":28,"refTime":"2025-03-07T09:00:00:Z","depth":0,"parameterNumber":3,"parameterNumberName":"V-component_of_WINDS"},"data":[0,0,0,0,0,0,0,0,0,0,0,0,0,0,0,0,0,0,0,0,0,0,0,0,0,0,0,0,0,0,0,0,0,0,0,0,0,0,0,0,0,0,0,0,0,0,0,0,0,0,0,0,0,0,0,0,0,0,0.2606,0.2607,0,0.2689,0.269,0.2691,0.2729,0.2729,0.2729,0.2729,0.2815,0.2817,0.282,0,0,0,0,0,0,0,0,0,0,0,0,0,0.2482,0.2484,0.2606,0.2607,0.2608,0.2689,0.269,0.2691,0.2729,0.2729,0.2729,0.2729,0.2814,0.2817,0.282,0,0,0,0,0,0,0,0,0,0,0,0,0,0.2548,0.2485,0.2606,0.2637,0.2641,0.2688,0.269,0.2691,0.273,0.2729,0.2729,0.2729,0.2813,0.2817,0.282,0.2844,0,0,0.2831,0.2833,0,0,0,0,0,0,0,0,0.2544,0.2552,0.2631,0.2635,0.2639,0.2699,0.2678,0.2742,0.273,0.2696,0.2729,0.2729,0.2776,0.2783,0.2799,0.2848,0.2851,0.2831,0.2833,0.2835,0.2836,0,0,0,0,0,0,0,0.2539,0.2549,0.2639,0.2632,0.2637,0.2647,0.2656,0.269,0.2736,0.2699,0.2702,0.2711,0.2779,0.2795,0.2801,0.2853,0.2831,0.2834,0.2836,0.2838,0.2926,0.2926,0,0,0,0,0,0,0.253,0.2545,0.2636,0.2641,0.259,0.2649,0.266,0.268,0.2735,0.2744,0.2711,0.2712,0.2789,0.2797,0.2804,0.2836,0.2835,0.2838,0.284,0.2925,0.2926,0.2926,0,0,0,0,0,0,0.2527,0.2537,0.2633,0.2594,0.2607,0.2652,0.2674,0.2681,0.2698,0.2745,0.2753,0.272,0.279,0.2799,0.2834,0.2839,0.284,0.2843,0.2925,0.2926,0.2926,0.2899,0,0,0,0,0,0,0.2523,0.2536,0.2545,0.2594,0.2609,0.266,0.2674,0.2683,0.2704,0.2707,0.2755,0.2763,0.279,0.2828,0.2837,0.2844,0.2846,0.2925,0.2925,0.2926,0.29,0.2898,0.2897,0,0,0,0,0,0.2518,0.2534,0.2545,0.2556,0.2621,0.2661,0.2669,0.27,0.2704,0.2714,0.2744,0.2761,0.2837,0.2831,0.2842,0.285,0.2925,0.2925,0.2926,0.29,0.2899,0.2897,0,0,0,0,0,0,0.2485,0.2541,0.2554,0.2586,0.2618,0.2667,0.268,0.2698,0.2729,0.2731,0.2768,0.2779,0.281,0.2833,0.2826,0.2876,0.2883,0.2885,0.286,0.2859,0.2857,0.2851,0.2849,0,0,0,0,0,0.2482,0.2509,0.2556,0.258,0.2596,0.2635,0.2653,0.2675,0.271,0.2723,0.2756,0.2789,0.2821,0.2841,0.2873,0.2903,0.2915,0.2914,0.2913,0.2912,0.2914,0.2932,0.2933,0.2928,0.2928,0.2928,0,0,0.2475,0.2509,0.2524,0.2574,0.2602,0.263,0.2646,0.2675,0.2696,0.2728,0.2763,0.2787,0.2827,0.286,0.2876,0.2881,0.2917,0.2912,0.2911,0.2914,0.2933,0.2933,0.2934,0.2928,0.2928,0.2928,0,0,0.2476,0.2504,0.2527,0.2554,0.2596,0.2622,0.2627,0.2674,0.2691,0.2727,0.2751,0.2777,0.283,0.2858,0.2879,0.2891,0.2909,0.29,0.2895,0.2912,0.2913,0.2913,0.2918,0.292,0.2902,0.2902,0.2902,0,0.2462,0.2505,0.2537,0.2565,0.2586,0.2616,0.264,0.2665,0.2714,0.2729,0.2733,0.2801,0.283,0.287,0.2873,0.2889,0.2897,0.2895,0.291,0.2911,0.2912,0.2917,0.2919,0.2901,0.2901,0.2901,0.2901,0,0.2486,0.2515,0.2529,0.2576,0.2599,0.2625,0.2661,0.2681,0.27,0.2726,0.2762,0.2798,0.2837,0.2848,0.2867,0.2891,0.2892,0.2903,0.291,0.2911,0.2916,0.2918,0.2899,0.2899,0.29,0.29,0,0,0.2469,0.2534,0.2538,0.256,0.2608,0.2631,0.2658,0.2697,0.2714,0.2747,0.2771,0.2815,0.2825,0.2849,0.2871,0.2887,0.2895,0.2896,0.2897,0.2895,0.2924,0.2917,0.2918,0.2907,0.2907,0.2907,0.2921,0,0.2478,0.2527,0.2557,0.2595,0.2623,0.2651,0.2675,0.2707,0.2732,0.276,0.2787,0.2819,0.2829,0.2844,0.286,0.289,0.2901,0.289,0.293,0.2931,0.292,0.2921,0.2913,0.2924,0.2924,0.2924,0.2924,0,0.2494,0.2527,0.2567,0.2612,0.2625,0.2646,0.2684,0.2709,0.2747,0.2764,0.279,0.2813,0.2843,0.2848,0.289,0.2882,0.29,0.2917,0.2918,0.2924,0.2928,0.2927,0.2929,0.293,0.2928,0.2927,0.2927,0,0.2479,0.2532,0.2564,0.2582,0.2635,0.2649,0.2672,0.2709,0.273,0.2763,0.2778,0.2814,0.2834,0.2862,0.2894,0.2894,0.2933,0.294,0.2949,0.2948,0.2957,0.2956,0.2961,0.2967,0.2967,0.2967,0.2967,0,0.2486,0.2509,0.2558,0.2577,0.2604,0.2639,0.2665,0.2691,0.2723,0.2749,0.2776,0.2799,0.2839,0.2867,0.2892,0.2924,0.2933,0.2948,0.2954,0.2946,0.2944,0.2959,0.2959,0.2967,0.2967,0.2967,0.2967,0,0.2473,0.2506,0.2542,0.259,0.2602,0.2621,0.2662,0.2682,0.2708,0.2739,0.2749,0.279,0.2825,0.2859,0.2906,0.2922,0.2954,0.2963,0.2942,0.2945,0.2952,0.2951,0.2968,0.2973,0.2974,0.2974,0.2974,0,0.2475,0.2494,0.2544,0.2562,0.2585,0.2614,0.2636,0.2671,0.2693,0.2737,0.2752,0.2788,0.2819,0.2873,0.2908,0.2944,0.2954,0.2957,0.2959,0.295,0.2955,0.2953,0.2956,0.2956,0.2956,0.2956,0.2956,0,0.2476,0.2492,0.2522,0.2559,0.2584,0.2614,0.2646,0.266,0.27,0.2724,0.2759,0.2783,0.2831,0.2867,0.2907,0.2931,0.2951,0.2955,0.2959,0.2951,0.2938,0.2946,0.2939,0.2954,0.2954,0.2955,0.2955,0.2955,0.2472,0.249,0.2528,0.2561,0.2588,0.2617,0.2639,0.2668,0.2698,0.2739,0.2758,0.2794,0.2831,0.2887,0.2911,0.294,0.2945,0.295,0.2952,0.2953,0.2951,0.2933,0.2947,0.2947,0.2947,0.2947,0.2947,0,0.2475,0.25,0.2531,0.2574,0.26,0.2615,0.2651,0.2672,0.2703,0.2736,0.2767,0.2808,0.2843,0.288,0.2918,0.2934,0.2944,0.2943,0.2943,0.2948,0.2944,0.2938,0.2934,0.2934,0.2934,0.2934,0.2934,0.2934,0.2479,0.2512,0.2532,0.2578,0.2604,0.2639,0.2658,0.2685,0.2712,0.2757,0.2786,0.281,0.2845,0.2885,0.2919,0.2929,0.2942,0.2938,0.2951,0.2947,0.2948,0.2949,0.2943,0.2941,0.2941,0.2952,0.2952,0.2952]}]]